Wind_Speed
14 13 11 10 8 7 7 8 9 10 10 11 12 14 15 15 15 16 17 17 17 18 16 13 11 10 9 9 10 11 13 13 15 16 17 18 19 19 19 20 20 20 21 21
12 11 10 10 8 7 8 8 9 10 10 11 11 12 12 12 12 12 11 10 9 7 7 7 7 7 8 9 10 11 13 14 15 16 18 19 20 20 20 20 20 21 21 21
9 9 9 9 8 7 8 8 9 10 9 9 10 10 10 9 9 6 4 3 2 2 2 3 4 5 7 9 10 12 13 15 16 18 19 19 19 20 20 20 20 20 20 20
8 9 9 8 7 7 7 8 8 8 8 9 9 10 10 10 10 8 6 4 4 3 3 4 4 6 8 10 12 13 15 16 17 18 18 18 18 18 18 18 18 18 18 18
9 9 8 7 7 8 7 7 7 8 8 8 9 8 9 10 10 9 8 8 7 7 6 6 7 8 10 12 14 15 16 17 17 17 17 17 17 17 17 17 17 17 16 17
10 9 8 8 8 8 8 8 8 8 8 9 9 8 9 9 9 9 9 9 8 9 8 8 9 11 12 14 15 15 15 15 16 16 17 17 17 17 18 18 18 18 17 17
10 10 9 9 9 9 8 7 7 8 8 10 10 9 10 10 9 9 10 10 10 10 10 11 12 13 14 14 14 15 15 16 16 16 16 17 17 18 18 18 19 19 19 20
8 10 10 9 9 9 8 6 5 4 6 9 10 10 11 10 10 10 10 10 10 10 10 11 12 13 14 14 15 15 15 16 16 16 17 17 18 19 19 19 20 21 22 23
8 10 12 11 9 9 9 7 6 6 6 6 8 9 10 10 10 10 10 10 10 10 11 11 12 13 14 14 15 15 16 16 17 17 18 19 20 20 21 21 22 23 24 25
10 10 12 11 10 9 8 8 6 4 4 5 9 10 11 11 11 10 10 10 10 11 11 12 13 13 14 14 15 16 16 17 17 18 19 20 21 22 23 24 25 25 26 27
11 10 12 12 11 11 10 9 6 5 6 4 7 10 12 11 11 10 10 10 11 11 12 13 13 14 15 15 16 16 17 18 19 20 21 22 23 24 25 25 27 28 29 30
12 11 11 13 13 12 11 10 9 7 9 9 8 11 14 12 11 10 10 11 12 12 13 14 14 15 16 16 17 18 18 19 20 22 23 24 25 26 27 28 29 30 32 33
12 11 9 10 12 12 12 12 12 11 10 10 9 11 16 14 12 12 12 12 12 13 14 15 15 16 16 17 18 19 20 21 23 24 25 26 27 28 29 30 31 33 35 36
13 12 9 9 11 13 13 13 13 12 12 12 13 13 16 15 14 13 13 13 13 14 15 15 16 16 17 18 19 20 22 23 25 26 27 28 29 30 31 33 34 36 37 39
14 13 12 11 13 13 12 13 14 14 13 14 14 15 16 16 14 14 14 14 14 14 15 15 16 17 18 19 20 22 24 25 27 28 28 29 31 32 33 35 37 39 40 42
14 14 13 12 13 13 12 12 13 13 14 14 14 15 16 15 15 14 14 14 14 15 15 16 17 18 19 21 23 24 26 27 28 29 30 31 32 34 35 37 39 41 42 44
15 15 14 12 14 13 10 11 12 12 13 14 14 15 16 15 15 15 15 15 16 16 16 17 18 20 21 23 25 27 28 29 30 31 31 32 34 35 37 39 41 43 44 45
15 15 14 13 13 12 10 14 12 12 12 14 15 16 17 17 17 18 17 17 17 17 17 19 20 22 24 25 27 28 29 30 31 32 32 34 35 37 39 41 44 45 46 46
17 16 15 14 13 13 13 16 15 14 14 17 18 18 19 20 19 20 20 19 19 19 20 21 23 24 26 28 29 30 31 32 32 33 34 35 37 39 41 44 46 47 47 47
18 18 17 16 16 15 16 19 18 17 16 20 21 21 22 21 20 21 22 22 22 22 24 25 26 28 29 30 32 33 33 34 34 35 36 38 40 42 44 46 48 49 48 47
20 19 19 19 19 17 22 21 20 19 20 22 22 23 23 22 22 23 24 25 25 26 27 28 30 31 33 34 35 35 36 36 37 38 39 41 42 44 47 49 50 50 49 47
21 21 22 22 21 21 27 24 24 24 24 24 24 24 24 24 24 25 26 27 28 29 30 32 33 34 36 37 38 39 39 40 40 41 42 43 44 47 50 51 51 51 49 46
24 24 26 26 25 28 28 27 26 25 25 25 26 26 26 26 27 27 28 29 30 31 33 34 36 37 38 40 41 43 44 44 45 45 45 46 47 49 51 52 52 51 49 45
27 27 27 28 28 30 29 29 29 29 29 29 29 29 30 30 30 30 31 32 33 34 35 37 38 39 40 42 44 46 48 49 50 49 48 49 49 51 52 52 52 51 48 45
30 29 29 30 31 32 32 31 32 32 33 33 33 33 33 33 33 33 34 35 35 36 38 39 40 41 42 45 47 49 51 53 52 51 51 52 53 53 53 53 52 50 47 44
28 29 30 32 32 33 33 33 34 34 34 34 34 34 34 35 35 35 36 37 38 39 41 42 43 44 46 48 49 50 52 54 54 54 54 54 54 53 53 52 50 48 45 43
Wind_Direction
7 8 4 357 0 355 344 333 319 313 313 307 300 298 291 284 281 277 273 271 263 267 267 266 272 282 293 304 309 312 312 310 310 311 310 310 308 306 304 302 299 296 294 291
359 358 353 353 353 354 349 343 331 324 319 313 313 312 308 307 294 286 282 275 275 265 262 269 279 294 307 313 316 317 317 318 319 320 320 320 318 315 313 310 308 304 300 296
348 343 346 348 355 352 345 342 332 330 332 337 338 343 342 344 343 331 319 305 304 294 291 304 313 316 324 327 326 326 326 324 325 326 326 325 323 320 318 316 312 309 304 301
328 331 335 337 341 338 331 329 330 333 335 335 344 349 358 1 12 22 35 43 45 42 19 0 339 336 336 333 330 329 328 327 327 327 326 325 324 323 322 321 318 315 310 307
314 321 323 325 326 326 318 322 323 325 330 330 335 341 347 358 11 24 35 40 39 29 18 7 354 345 338 335 332 330 328 327 326 324 324 325 325 325 325 325 323 321 318 315
306 312 311 311 312 315 317 318 319 322 327 319 314 321 323 337 351 2 10 11 10 7 1 353 346 342 338 335 332 329 327 326 324 324 326 327 328 328 328 327 325 322 320 317
307 310 309 308 307 307 315 333 350 342 330 303 299 301 305 320 335 344 348 349 349 349 346 341 339 339 335 331 329 327 325 324 324 327 329 330 331 330 329 328 327 326 323 320
299 299 301 302 299 297 309 320 315 301 302 301 294 294 304 315 324 331 336 337 337 335 333 331 331 330 328 325 323 322 323 324 325 326 327 328 329 329 329 328 327 325 324 322
285 286 294 293 291 291 297 302 306 314 313 320 300 297 303 311 318 323 326 326 325 325 323 322 321 320 320 319 318 317 319 321 323 324 325 326 326 325 325 326 325 324 323 322
285 291 295 291 287 285 285 293 309 322 305 313 312 308 302 307 314 317 318 316 315 314 311 311 311 310 311 313 314 315 318 321 324 325 326 326 326 325 324 324 323 322 321 320
284 288 291 290 281 280 282 284 294 294 281 286 299 297 293 301 304 306 306 306 306 304 301 301 302 304 306 310 313 317 320 323 326 328 328 328 327 325 324 324 323 322 320 320
286 288 285 285 281 276 273 278 288 290 287 289 294 293 288 292 292 296 298 297 298 297 296 297 299 301 305 309 314 318 322 325 328 329 329 329 328 326 325 324 323 322 320 319
287 293 303 303 299 285 278 279 282 280 281 287 289 288 284 287 288 292 294 294 293 293 295 297 300 302 306 311 316 321 324 327 329 329 329 328 328 326 325 324 323 322 320 319
284 288 278 266 266 272 281 282 278 275 277 279 279 273 279 284 289 294 294 293 293 294 295 298 301 304 309 314 319 323 326 328 329 329 329 328 327 327 326 324 323 322 320 318
281 284 283 277 276 277 276 276 277 275 271 269 270 274 277 283 290 295 296 296 296 296 298 300 302 306 311 316 320 323 326 327 328 328 327 326 325 325 324 324 323 321 320 318
277 277 276 280 285 283 280 278 278 277 275 271 273 278 280 286 292 296 298 299 299 300 301 303 305 309 313 316 319 322 324 325 326 325 325 324 324 324 323 322 322 321 320 319
276 275 274 274 277 283 293 284 282 282 280 277 276 277 283 290 295 298 300 302 302 302 304 305 308 311 313 315 317 320 321 322 323 323 322 322 322 322 322 322 322 321 321 319
269 268 270 270 268 273 272 275 282 286 285 284 284 286 290 293 297 299 300 301 302 303 304 306 307 309 311 313 315 317 319 320 320 320 320 320 321 322 322 323 323 323 322 320
266 265 266 265 264 273 278 281 286 289 290 287 288 291 292 294 298 298 298 300 302 304 305 305 307 308 310 312 313 315 316 317 317 318 318 319 320 322 323 323 324 324 323 321
266 262 262 263 258 257 262 270 282 287 290 283 288 292 293 295 298 298 298 301 302 304 305 305 307 308 310 311 312 314 314 315 315 316 317 318 320 321 323 324 325 325 324 323
269 266 261 264 267 269 267 273 279 281 276 281 289 292 293 294 296 296 298 300 302 303 304 305 307 308 310 311 312 312 312 313 314 315 316 318 319 322 323 324 324 324 324 323
268 269 268 266 267 266 271 276 277 279 283 287 289 291 292 294 295 296 298 300 301 303 305 306 308 309 310 310 310 310 311 311 312 313 315 317 319 322 323 323 323 323 324 323
264 260 262 265 268 270 275 279 282 284 286 287 289 291 292 294 294 295 296 298 300 302 304 305 307 308 308 308 309 309 310 310 311 313 314 315 316 319 320 321 322 322 322 321
267 264 264 269 271 273 277 281 283 285 287 288 289 290 291 292 293 293 295 296 298 300 301 303 304 305 305 305 305 306 308 309 310 311 313 314 315 316 317 318 320 320 319 319
261 267 268 269 271 275 277 280 282 285 287 288 288 289 290 290 291 293 294 295 297 298 299 299 300 301 301 301 301 302 305 307 308 309 312 312 312 314 314 315 317 317 317 317
265 267 269 271 273 274 277 278 280 282 284 285 286 287 288 289 290 291 292 294 295 296 297 297 298 298 299 300 301 302 304 305 306 309 310 310 310 312 312 313 314 315 314 314
Height
5885 5885 5883 5881 5880 5879 5877 5876 5875 5873 5871 5870 5869 5868 5866 5864 5863 5862 5862 5861 5861 5862 5863 5864 5865 5866 5866 5866 5865 5864 5863 5861 5860 5858 5855 5853 5851 5849 5847 5845 5843 5840 5839 5837
5887 5885 5884 5881 5879 5878 5876 5875 5874 5872 5870 5869 5867 5865 5863 5861 5860 5859 5858 5857 5857 5859 5860 5861 5862 5863 5863 5862 5862 5860 5859 5857 5856 5853 5851 5848 5846 5843 5841 5839 5837 5834 5832 5831
5887 5886 5883 5881 5880 5878 5877 5875 5874 5871 5869 5868 5867 5865 5862 5860 5858 5856 5855 5856 5856 5857 5858 5859 5860 5860 5860 5860 5859 5857 5856 5854 5852 5849 5846 5844 5841 5839 5836 5834 5832 5829 5827 5825
5886 5885 5883 5881 5879 5878 5877 5875 5873 5871 5870 5869 5868 5866 5864 5861 5859 5857 5856 5856 5857 5857 5858 5858 5858 5858 5858 5857 5856 5854 5852 5850 5847 5845 5843 5840 5838 5835 5832 5829 5827 5825 5822 5820
5885 5884 5882 5880 5879 5877 5876 5874 5873 5871 5870 5869 5868 5867 5866 5862 5861 5859 5858 5858 5857 5857 5857 5857 5857 5856 5855 5854 5853 5851 5849 5847 5845 5842 5840 5837 5834 5831 5829 5826 5823 5821 5819 5816
5883 5882 5881 5879 5878 5876 5875 5874 5872 5871 5870 5870 5868 5868 5866 5863 5862 5860 5859 5858 5857 5857 5856 5856 5855 5854 5853 5852 5850 5849 5847 5845 5843 5840 5837 5834 5831 5828 5825 5822 5820 5817 5815 5812
5882 5880 5879 5878 5876 5875 5874 5874 5875 5874 5873 5870 5867 5867 5866 5863 5862 5860 5859 5858 5857 5856 5855 5854 5853 5852 5851 5850 5849 5847 5845 5843 5840 5838 5835 5832 5828 5825 5822 5819 5816 5813 5810 5807
5881 5881 5877 5876 5875 5874 5873 5873 5874 5874 5873 5870 5866 5865 5865 5862 5861 5860 5858 5857 5856 5855 5854 5853 5852 5851 5850 5849 5847 5845 5843 5841 5838 5835 5832 5829 5826 5822 5819 5815 5812 5808 5805 5802
5880 5879 5875 5874 5873 5873 5872 5871 5871 5870 5869 5869 5867 5865 5863 5861 5860 5859 5858 5857 5856 5855 5853 5852 5851 5850 5849 5847 5846 5843 5841 5838 5835 5832 5829 5826 5822 5818 5815 5811 5807 5804 5800 5796
5876 5875 5873 5871 5871 5870 5870 5869 5869 5869 5869 5870 5868 5865 5863 5860 5859 5858 5857 5855 5854 5853 5852 5851 5850 5849 5847 5845 5843 5841 5838 5835 5832 5828 5825 5821 5817 5814 5810 5806 5802 5798 5794 5790
5873 5873 5872 5869 5868 5869 5868 5867 5867 5867 5866 5867 5868 5868 5861 5859 5858 5857 5855 5854 5853 5852 5851 5849 5848 5847 5845 5843 5840 5838 5835 5831 5828 5824 5820 5816 5812 5808 5804 5800 5796 5792 5787 5783
5869 5870 5869 5867 5865 5865 5865 5864 5864 5865 5864 5863 5864 5867 5858 5857 5856 5855 5854 5853 5851 5850 5848 5847 5845 5844 5842 5840 5837 5834 5830 5826 5823 5819 5815 5811 5806 5802 5798 5794 5790 5785 5780 5775
5866 5866 5867 5866 5865 5863 5862 5861 5861 5861 5861 5861 5862 5864 5856 5855 5853 5852 5851 5850 5848 5847 5845 5844 5842 5840 5838 5835 5832 5829 5825 5821 5817 5813 5809 5805 5800 5796 5792 5787 5782 5778 5773 5767
5863 5863 5864 5865 5862 5860 5859 5858 5857 5857 5858 5859 5858 5857 5854 5852 5850 5849 5848 5846 5845 5843 5842 5840 5838 5836 5833 5830 5827 5824 5820 5816 5812 5807 5803 5799 5794 5790 5785 5780 5775 5770 5764 5758
5859 5859 5859 5858 5857 5856 5855 5855 5854 5853 5853 5853 5853 5852 5850 5848 5847 5846 5844 5843 5841 5839 5837 5835 5833 5831 5828 5825 5822 5818 5814 5810 5806 5802 5797 5793 5788 5783 5778 5773 5767 5762 5755 5749
5855 5855 5855 5854 5853 5852 5851 5851 5850 5849 5849 5848 5848 5848 5846 5844 5843 5842 5840 5838 5836 5834 5832 5830 5828 5825 5823 5819 5816 5812 5808 5804 5800 5795 5791 5786 5781 5776 5771 5765 5759 5753 5746 5739
5851 5851 5850 5850 5851 5849 5849 5848 5847 5846 5845 5845 5844 5844 5841 5840 5839 5837 5836 5834 5832 5830 5827 5825 5822 5820 5817 5814 5810 5806 5802 5798 5793 5789 5784 5780 5774 5769 5763 5757 5750 5744 5737 5730
5847 5846 5846 5846 5847 5846 5848 5844 5843 5843 5842 5840 5839 5838 5837 5836 5834 5832 5830 5829 5826 5824 5822 5819 5817 5814 5811 5807 5803 5799 5795 5791 5787 5782 5777 5772 5767 5761 5755 5748 5741 5734 5727 5719
5842 5842 5842 5842 5843 5843 5844 5840 5839 5839 5838 5836 5835 5834 5832 5830 5829 5827 5825 5823 5821 5818 5816 5814 5811 5808 5804 5801 5797 5793 5788 5784 5779 5775 5770 5764 5759 5752 5746 5739 5731 5724 5716 5708
5837 5837 5837 5837 5837 5839 5840 5836 5835 5836 5834 5832 5830 5829 5827 5825 5825 5823 5819 5817 5814 5812 5810 5807 5804 5801 5797 5793 5789 5785 5780 5776 5771 5766 5761 5756 5750 5743 5736 5729 5721 5713 5705 5697
5832 5831 5832 5832 5832 5833 5831 5830 5831 5832 5830 5827 5825 5823 5822 5820 5818 5816 5813 5810 5808 5805 5803 5800 5797 5793 5789 5785 5781 5776 5772 5767 5762 5757 5752 5746 5740 5733 5726 5719 5711 5703 5695 5687
5827 5827 5826 5826 5827 5829 5823 5824 5824 5824 5823 5821 5819 5817 5815 5813 5811 5808 5806 5803 5800 5798 5795 5792 5788 5784 5780 5776 5772 5767 5763 5758 5753 5748 5742 5736 5729 5723 5716 5708 5700 5692 5685 5677
5820 5821 5820 5821 5822 5818 5817 5817 5816 5816 5815 5813 5811 5809 5807 5805 5803 5801 5798 5795 5792 5789 5786 5783 5779 5775 5771 5767 5762 5757 5752 5747 5743 5737 5732 5725 5719 5712 5705 5697 5690 5682 5674 5667
5813 5811 5812 5812 5812 5810 5810 5809 5808 5807 5806 5804 5803 5801 5799 5797 5795 5792 5790 5787 5784 5781 5777 5774 5770 5766 5761 5757 5752 5747 5742 5736 5731 5726 5720 5714 5708 5701 5694 5687 5679 5671 5664 5657
5805 5804 5805 5804 5804 5803 5801 5801 5800 5798 5797 5795 5793 5792 5790 5788 5785 5783 5780 5777 5774 5771 5767 5764 5760 5756 5751 5747 5742 5736 5731 5725 5720 5714 5708 5702 5696 5690 5682 5675 5668 5660 5654 5647
5797 5797 5797 5796 5795 5794 5793 5792 5791 5789 5787 5786 5784 5782 5780 5777 5775 5772 5769 5766 5763 5760 5757 5753 5749 5745 5740 5735 5730 5725 5719 5714 5708 5702 5697 5691 5684 5678 5671 5663 5656 5650 5644 5637